Location: Unspecified
(0.0000°N, 0.0000°E)
Time: 02:02:53
(UTC+00:00)

Navstar 5 - Visible Passes

Search period start: 19 February 2018 00:00
Search period end: 01 March 2018 00:00
Orbit: 18981 x 21380 km, 63.3° (Epoch: 16 February)

Date Brightness Start Highest point End Pass type
(mag) Time Alt. Az. Time Alt. Az. Time Alt. Az.
19 Feb ? 19:22:00 10° SSW 23:26:46 54° NNE 01:11:53 10° NNE visible
20 Feb ? 19:17:50 10° SSW 22:27:35 69° E 01:07:42 10° NNE visible
21 Feb ? 19:13:39 10° SSW 22:23:26 69° E 01:03:32 10° NNE visible
22 Feb ? 19:09:28 10° SSW 22:19:17 69° E 00:59:21 10° NNE visible
23 Feb ? 19:05:18 10° SSW 22:15:09 69° E 00:55:11 10° NNE visible
24 Feb ? 19:01:07 10° SSW 22:11:00 69° E 00:51:00 10° NNE visible
25 Feb ? 18:56:56 10° SSW 22:06:51 69° E 00:46:50 10° NNE visible
26 Feb ? 18:52:46 10° SSW 22:02:43 69° E 00:42:39 10° NNE visible
27 Feb ? 18:48:35 10° SSW 21:58:33 69° E 00:38:29 10° NNE visible
